TimeCDT,TemperatureF,Dew PointF,Humidity,Sea Level PressureIn,VisibilityMPH,Wind Direction,Wind SpeedMPH,Gust SpeedMPH,PrecipitationIn,Events,Conditions,WindDirDegrees,DateUTC
12:15 AM,75.2,68.0,78,29.86,10.0,Calm,Calm,-,N/A,,Clear,0,2013-06-12 05:15:00
12:35 AM,73.4,68.0,83,29.86,10.0,SE,5.8,-,N/A,,Clear,140,2013-06-12 05:35:00
12:55 AM,75.2,69.8,83,29.87,10.0,SE,3.5,-,N/A,,Clear,140,2013-06-12 05:55:00
1:15 AM,75.2,69.8,83,29.87,10.0,SSE,4.6,-,N/A,,Clear,160,2013-06-12 06:15:00
1:35 AM,73.4,69.8,88,29.87,10.0,South,5.8,-,N/A,,Clear,170,2013-06-12 06:35:00
1:55 AM,75.2,69.8,83,29.87,10.0,South,5.8,-,N/A,,Clear,170,2013-06-12 06:55:00
2:15 AM,75.2,69.8,83,29.87,10.0,SSE,4.6,-,N/A,,Clear,160,2013-06-12 07:15:00
2:35 AM,73.4,69.8,88,29.87,10.0,South,3.5,-,N/A,,Clear,170,2013-06-12 07:35:00
2:55 AM,73.4,69.8,88,29.87,10.0,South,5.8,-,N/A,,Clear,170,2013-06-12 07:55:00
3:15 AM,73.4,69.8,88,29.86,10.0,SSE,3.5,-,N/A,,Clear,160,2013-06-12 08:15:00
3:35 AM,73.4,69.8,88,29.86,10.0,SSE,4.6,-,N/A,,Clear,160,2013-06-12 08:35:00
3:55 AM,73.4,69.8,88,29.86,10.0,SSE,4.6,-,N/A,,Clear,160,2013-06-12 08:55:00
4:15 AM,73.4,69.8,88,29.86,10.0,SSE,4.6,-,N/A,,Clear,160,2013-06-12 09:15:00
4:35 AM,73.4,69.8,88,29.86,10.0,SSE,4.6,-,N/A,,Clear,160,2013-06-12 09:35:00
4:55 AM,73.4,69.8,88,29.86,10.0,South,6.9,-,N/A,,Clear,170,2013-06-12 09:55:00
5:15 AM,73.4,69.8,88,29.87,10.0,South,4.6,-,N/A,,Clear,170,2013-06-12 10:15:00
5:35 AM,73.4,69.8,88,29.88,10.0,South,5.8,-,N/A,,Clear,180,2013-06-12 10:35:00
5:55 AM,71.6,69.8,94,29.89,10.0,South,4.6,-,N/A,,Clear,190,2013-06-12 10:55:00
6:15 AM,73.4,69.8,88,29.89,10.0,South,4.6,-,N/A,,Clear,170,2013-06-12 11:15:00
6:35 AM,73.4,69.8,88,29.90,10.0,South,6.9,-,N/A,,Clear,170,2013-06-12 11:35:00
6:55 AM,73.4,69.8,88,29.89,10.0,South,3.5,-,N/A,,Clear,170,2013-06-12 11:55:00
7:15 AM,75.2,69.8,83,29.89,10.0,South,4.6,-,N/A,,Clear,170,2013-06-12 12:15:00
7:35 AM,75.2,69.8,83,29.89,10.0,Calm,Calm,-,N/A,,Clear,0,2013-06-12 12:35:00
7:55 AM,77.0,69.8,78,29.89,10.0,Calm,Calm,-,N/A,,Clear,0,2013-06-12 12:55:00
8:15 AM,78.8,71.6,78,29.89,10.0,Calm,Calm,-,N/A,,Clear,0,2013-06-12 13:15:00
8:35 AM,80.6,71.6,74,29.89,10.0,South,4.6,-,N/A,,Clear,170,2013-06-12 13:35:00
8:55 AM,80.6,71.6,74,29.87,10.0,South,8.1,-,N/A,,Clear,170,2013-06-12 13:55:00
9:15 AM,82.4,71.6,70,29.86,10.0,SSE,6.9,-,N/A,,Clear,160,2013-06-12 14:15:00
9:35 AM,82.4,71.6,70,29.83,10.0,SSE,10.4,-,N/A,,Clear,160,2013-06-12 14:35:00
9:55 AM,82.4,71.6,70,29.80,10.0,SSE,13.8,-,N/A,,Clear,160,2013-06-12 14:55:00
10:15 AM,84.2,71.6,66,29.78,10.0,South,15.0,21.9,N/A,,Clear,180,2013-06-12 15:15:00
10:35 AM,84.2,71.6,66,29.80,10.0,SSW,9.2,23.0,N/A,,Clear,200,2013-06-12 15:35:00
10:55 AM,84.2,71.6,66,29.81,10.0,SSW,15.0,20.7,N/A,,Clear,200,2013-06-12 15:55:00
11:15 AM,84.2,71.6,66,29.79,10.0,South,11.5,-,N/A,,Clear,190,2013-06-12 16:15:00
11:35 AM,86.0,73.4,66,29.77,10.0,South,13.8,18.4,N/A,,Clear,180,2013-06-12 16:35:00
11:55 AM,87.8,73.4,62,29.76,10.0,South,15.0,20.7,N/A,,Clear,180,2013-06-12 16:55:00
12:15 PM,87.8,73.4,62,29.76,10.0,South,13.8,20.7,N/A,,Clear,190,2013-06-12 17:15:00
12:35 PM,87.8,73.4,62,29.74,10.0,South,13.8,21.9,N/A,,Clear,190,2013-06-12 17:35:00
12:55 PM,89.6,73.4,59,29.73,10.0,SSW,15.0,20.7,N/A,,Clear,210,2013-06-12 17:55:00
1:15 PM,89.6,73.4,59,29.73,10.0,SW,12.7,20.7,N/A,,Clear,220,2013-06-12 18:15:00
1:35 PM,91.4,71.6,52,29.74,10.0,SSW,15.0,19.6,N/A,,Scattered Clouds,210,2013-06-12 18:35:00
1:55 PM,91.4,69.8,49,29.74,10.0,SW,11.5,21.9,N/A,,Mostly Cloudy,220,2013-06-12 18:55:00
2:15 PM,91.4,69.8,49,29.74,10.0,SW,13.8,21.9,N/A,,Mostly Cloudy,220,2013-06-12 19:15:00
2:35 PM,91.4,69.8,49,29.73,10.0,SW,15.0,20.7,N/A,,Mostly Cloudy,220,2013-06-12 19:35:00
2:55 PM,91.4,69.8,49,29.73,10.0,SW,15.0,27.6,N/A,,Mostly Cloudy,230,2013-06-12 19:55:00
3:15 PM,93.2,69.8,46,29.72,10.0,SW,11.5,23.0,N/A,,Scattered Clouds,230,2013-06-12 20:15:00
3:35 PM,91.4,71.6,52,29.72,10.0,WSW,8.1,17.3,N/A,,Mostly Cloudy,250,2013-06-12 20:35:00
3:55 PM,91.4,71.6,52,29.71,10.0,WSW,10.4,-,N/A,,Mostly Cloudy,240,2013-06-12 20:55:00
4:15 PM,91.4,71.6,52,29.71,10.0,WSW,9.2,-,N/A,,Scattered Clouds,240,2013-06-12 21:15:00
4:35 PM,91.4,69.8,49,29.70,10.0,West,12.7,18.4,N/A,,Scattered Clouds,270,2013-06-12 21:35:00
4:55 PM,91.4,69.8,49,29.70,10.0,West,12.7,21.9,N/A,,Clear,270,2013-06-12 21:55:00
5:15 PM,91.4,71.6,52,29.69,10.0,WSW,10.4,17.3,N/A,,Scattered Clouds,240,2013-06-12 22:15:00
5:35 PM,91.4,69.8,49,29.68,10.0,WSW,9.2,23.0,N/A,,Clear,250,2013-06-12 22:35:00
5:55 PM,89.6,69.8,52,29.68,10.0,WSW,16.1,24.2,N/A,,Clear,250,2013-06-12 22:55:00
6:15 PM,89.6,69.8,52,29.67,10.0,WSW,10.4,25.3,N/A,,Clear,250,2013-06-12 23:15:00
6:35 PM,89.6,69.8,52,29.67,10.0,WSW,10.4,19.6,N/A,,Clear,250,2013-06-12 23:35:00
6:55 PM,89.6,69.8,52,29.68,10.0,West,8.1,20.7,N/A,,Clear,260,2013-06-12 23:55:00
7:15 PM,89.6,69.8,52,29.68,10.0,WSW,8.1,18.4,N/A,,Clear,250,2013-06-13 00:15:00
7:35 PM,87.8,69.8,55,29.68,10.0,WSW,8.1,-,N/A,,Clear,250,2013-06-13 00:35:00
7:55 PM,87.8,69.8,55,29.68,10.0,WSW,8.1,-,N/A,,Clear,240,2013-06-13 00:55:00
8:15 PM,86.0,69.8,58,29.68,10.0,WSW,5.8,-,N/A,,Clear,240,2013-06-13 01:15:00
8:35 PM,84.2,69.8,62,29.69,10.0,SW,9.2,-,N/A,,Clear,230,2013-06-13 01:35:00
8:55 PM,84.2,69.8,62,29.68,10.0,SW,9.2,-,N/A,,Clear,230,2013-06-13 01:55:00
9:15 PM,84.2,69.8,62,29.69,10.0,WSW,5.8,-,N/A,,Mostly Cloudy,250,2013-06-13 02:15:00
9:35 PM,82.4,68.0,62,29.71,10.0,NW,27.6,33.4,N/A,,Mostly Cloudy,310,2013-06-13 02:35:00
9:55 PM,80.6,66.2,61,29.73,10.0,NW,21.9,33.4,N/A,,Scattered Clouds,310,2013-06-13 02:55:00
10:15 PM,78.8,66.2,65,29.74,10.0,WNW,19.6,32.2,N/A,,Scattered Clouds,300,2013-06-13 03:15:00
10:35 PM,77.0,64.4,65,29.76,10.0,NW,19.6,41.4,N/A,,Scattered Clouds,310,2013-06-13 03:35:00
10:55 PM,75.2,64.4,69,29.76,10.0,WNW,20.7,31.1,N/A,,Scattered Clouds,300,2013-06-13 03:55:00
11:15 PM,73.4,62.6,69,29.77,10.0,West,13.8,23.0,N/A,,Clear,280,2013-06-13 04:15:00
11:35 PM,73.4,60.8,65,29.77,10.0,West,18.4,24.2,N/A,,Clear,280,2013-06-13 04:35:00
11:55 PM,73.4,60.8,65,29.77,10.0,West,15.0,26.5,N/A,,Clear,280,2013-06-13 04:55:00